x

Bingley Samos (03344) Weather Station

12:00pm - Wed 1st Apr 2015 All times are BST. 1 hours from GMT.

  • Wind
    13mph, 32mph gusts
  • Air Temp 43°f
  • Sea Pressure 1019mb
  • Bingley Samos
  • Bingley Samos

More Historic Weather Station data

Upgrade to MSW Pro to gain access to the past 30 days of data for over 8000 Wavebouys and Weather Stations around the globe.

Join Pro

Comparision Forecast

View Surf forecast
   
Wed 04/01 12:00pm 13 32 mph 1019mb 43f
11:00am 13 26 mph 1020mb 41f
10:00am 16 29 mph 1019mb 40f
9:00am 11
mph
1019mb 38f
8:00am 11 24 mph 1019mb 37f
7:00am 13 29 mph 1018mb 36f
6:00am 14 28 mph 1018mb 36f
5:00am 13 24 mph 1017mb 35f
4:00am 13 36 mph 1017mb 35f
3:00am 19 37 mph 1016mb 34f
2:00am 14 38 mph 1015mb 36f
1:00am 22 38 mph 1015mb 36f
12:00am 17 33 mph 1013mb 36f
Tue 03/31 11:00pm 17 46 mph 1013mb 36f
10:00pm 15 41 mph 1012mb 34f
9:00pm 19 40 mph 1011mb 37f
8:00pm 16 38 mph 1010mb 37f
7:00pm 16 44 mph 1010mb 37f
6:00pm 25 52 mph 1010mb 35f
5:00pm 21 43 mph 1008mb 40f
4:00pm 22 47 mph 1007mb 39f
3:00pm 22 47 mph 1006mb 41f
2:00pm 24 46 mph 1005mb 42f
1:00pm 19 43 mph 1004mb 43f
12:00pm 18 40 mph 1003mb 40f
11:00am 18 41 mph 1002mb 41f
10:00am 24 44 mph 1001mb 41f
9:00am 21 46 mph 1000mb 40f
8:00am 19 41 mph 997mb 40f
7:00am 23 47 mph 995mb 41f
6:00am 25 46 mph 993mb 41f
5:00am 23 48 mph 990mb 42f
4:00am 25 48 mph 988mb 43f
3:00am 23 52 mph 988mb 44f
2:00am 23 51 mph 987mb 46f
1:00am 22 46 mph 987mb 46f
12:00am 22 52 mph 987mb 47f
Mon 03/30 11:00pm 28 48 mph 988mb 50f
10:00pm 23 38 mph 990mb 46f
9:00pm 18 30 mph 993mb 43f
8:00pm 18 32 mph 995mb 42f
7:00pm 23 37 mph 997mb 40f
6:00pm 16 30 mph 1000mb 38f
5:00pm 16 28 mph 1003mb 40f
4:00pm 16 30 mph 1004mb 43f
3:00pm 16 30 mph 1005mb 46f
2:00pm 17 31 mph 1006mb 45f
1:00pm 16 31 mph 1006mb 44f
12:00pm 14 31 mph 1007mb 43f
11:00am 14
mph
1007mb 42f
10:00am 10
mph
1006mb 40f
9:00am 9
mph
1005mb 38f
8:00am 11 26 mph 1005mb 37f
7:00am 11 32 mph 1004mb 35f
6:00am 11 36 mph 1002mb 36f
5:00am 15 37 mph 1000mb 37f
4:00am 17 34 mph 999mb 38f
3:00am 15 29 mph 999mb 38f
2:00am 11
mph
998mb 38f
1:00am 14 26 mph 997mb 38f
12:00am 11 29 mph 997mb 39f
Sun 03/29 11:00pm 15 26 mph 996mb 39f
10:00pm 15 26 mph 995mb 40f
9:00pm 11 24 mph 994mb 40f
8:00pm 14 33 mph 994mb 41f
7:00pm 13 30 mph 992mb 42f
6:00pm 14 31 mph 992mb 43f
5:00pm 15 32 mph 992mb 43f
4:00pm 17 32 mph 991mb 41f
3:00pm 15 33 mph 990mb 41f
2:00pm 15 30 mph 989mb 42f
1:00pm 6
mph
988mb 42f
12:00pm 7
mph
989mb 42f
11:00am 8
mph
990mb 41f
10:00am 11
mph
991mb 41f
9:00am 14 29 mph 993mb 40f
8:00am 16 31 mph 994mb 43f
7:00am 14 30 mph 995mb 43f
6:00am 15 32 mph 996mb 42f
5:00am 17 38 mph 996mb 42f
4:00am 22 40 mph 996mb 42f
3:00am 18 43 mph 998mb 44f
2:00am 22 46 mph 998mb 44f
1:00am 24 45 mph 998mb 45f
12:00am 23 38 mph 997mb 45f
Sat 03/28 11:00pm 17 31 mph 999mb 44f
10:00pm 15 33 mph 999mb 45f
9:00pm 16 32 mph 1000mb 44f
8:00pm 18 36 mph 1000mb 45f
7:00pm 16 32 mph 1000mb 47f
6:00pm 16 33 mph 1000mb 49f
5:00pm 14 38 mph 1000mb 49f
4:00pm 21 38 mph 1000mb 52f
3:00pm 22 38 mph 1000mb 53f
2:00pm 22 38 mph 1000mb 52f
1:00pm 24 39 mph 1000mb 51f